| time (UTC) | temp F | wind direction | speed MPH | gust MPH | rain 1hr in | rain 24hr in | rain mn in | humidity % | barometer mb |
| 20260906191839 | 72 | 287 | 0.0 | 1.0 | 0.00 | 0.03 | 0.03 | 88 | 1016.0 |
| 20260906191339 | 72 | 282 | 1.0 | 1.0 | 0.00 | 0.03 | 0.03 | 87 | 1016.0 |
| 20260906190833 | 72 | 284 | 1.0 | 1.0 | 0.00 | 0.03 | 0.03 | 85 | 1015.8 |
| 20260906190332 | 73 | 276 | 1.0 | 2.0 | 0.00 | 0.03 | 0.03 | 85 | 1015.8 |
| 20260906185833 | 73 | 322 | 1.0 | 1.0 | 0.00 | 0.03 | 0.03 | 85 | 1015.3 |
| 20260906185332 | 73 | 281 | 1.0 | 2.0 | 0.00 | 0.03 | 0.03 | 84 | 1015.3 |
| 20260906184826 | 74 | 287 | 1.0 | 1.0 | 0.00 | 0.03 | 0.03 | 83 | 1015.2 |
| 20260906184321 | 74 | 287 | 1.0 | 2.0 | 0.00 | 0.03 | 0.03 | 83 | 1015.2 |
| 20260906183817 | 80 | 324 | 2.0 | 3.0 | 0.00 | 0.03 | 0.03 | 82 | 1015.4 |
| 20260906183313 | 81 | 284 | 0.0 | 0.0 | 0.00 | 0.03 | 0.03 | 85 | 1015.0 |
| 20260906182813 | 81 | 283 | 1.0 | 1.0 | 0.00 | 0.03 | 0.03 | 85 | 1014.9 |
| 20260906182309 | 81 | 278 | 0.0 | 0.0 | 0.00 | 0.03 | 0.03 | 87 | 1015.3 |
| 20260906181809 | 81 | 305 | 0.0 | 1.0 | 0.00 | 0.03 | 0.03 | 86 | 1015.4 |
| 20260906181305 | 80 | 282 | 0.0 | 0.0 | 0.00 | 0.03 | 0.03 | 87 | 1015.1 |
| 20260906180806 | 80 | 300 | 1.0 | 1.0 | 0.00 | 0.03 | 0.03 | 89 | 1014.7 |
| 20260906180301 | 79 | 272 | 1.0 | 2.0 | 0.00 | 0.03 | 0.03 | 92 | 1014.9 |
| 20260906175758 | 79 | 240 | 1.0 | 1.0 | 0.00 | 0.03 | 0.03 | 92 | 1014.9 |
| 20260906175254 | 78 | 134 | 1.0 | 3.0 | 0.00 | 0.03 | 0.03 | 93 | 1014.9 |
| 20260906174752 | 78 | 65 | 1.0 | 2.0 | 0.00 | 0.03 | 0.03 | 94 | 1015.0 |
| 20260906174252 | 78 | 274 | 1.0 | 1.0 | 0.00 | 0.03 | 0.03 | 93 | 1015.0 |
| 20260906173747 | 78 | 42 | 2.0 | 3.0 | 0.00 | 0.03 | 0.03 | 93 | 1015.1 |
| 20260906173243 | 78 | 346 | 2.0 | 3.0 | 0.07 | 0.03 | 0.03 | 94 | 1014.9 |
| 20260906172742 | 78 | 50 | 4.0 | 6.0 | 0.07 | 0.03 | 0.03 | 93 | 1015.2 |
| 20260906172238 | 78 | 303 | 1.0 | 1.0 | 0.00 | 0.02 | 0.02 | 93 | 1015.4 |
| 20260906171738 | 78 | 303 | 2.0 | 3.0 | 0.00 | 0.02 | 0.02 | 92 | 1015.4 |
| 20260906171233 | 78 | 312 | 1.0 | 1.0 | 0.00 | 0.02 | 0.02 | 92 | 1015.3 |
| 20260906170729 | 78 | 318 | 1.0 | 2.0 | 0.00 | 0.02 | 0.02 | 92 | 1015.5 |
| 20260906170224 | 78 | 316 | 0.0 | 0.0 | 0.00 | 0.02 | 0.02 | 93 | 1015.5 |
| 20260906165720 | 78 | 314 | 0.0 | 1.0 | 0.00 | 0.02 | 0.02 | 93 | 1015.6 |
| 20260906165215 | 78 | 298 | 0.0 | 0.0 | 0.00 | 0.02 | 0.02 | 92 | 1015.3 |
| 20260906164715 | 78 | 280 | 0.0 | 0.0 | 0.00 | 0.02 | 0.02 | 92 | 1015.4 |
| 20260906164210 | 79 | 281 | 1.0 | 1.0 | 0.00 | 0.02 | 0.02 | 92 | 1015.7 |
| 20260906163705 | 79 | 280 | 0.0 | 1.0 | 0.00 | 0.02 | 0.02 | 90 | 1015.3 |
| 20260906163202 | 79 | 282 | 0.0 | 0.0 | 0.00 | 0.02 | 0.02 | 89 | 1015.1 |
| 20260906162658 | 79 | 280 | 0.0 | 0.0 | 0.00 | 0.02 | 0.02 | 90 | 1014.7 |
| 20260906162158 | 79 | 282 | 0.0 | 0.0 | 0.00 | 0.02 | 0.02 | 90 | 1014.5 |
| 20260906161653 | 79 | 290 | 0.0 | 1.0 | 0.00 | 0.02 | 0.02 | 90 | 1014.3 |
| 20260906161152 | 79 | 284 | 0.0 | 1.0 | 0.00 | 0.02 | 0.02 | 91 | 1014.5 |
| 20260906160651 | 79 | 284 | 0.0 | 0.0 | 0.00 | 0.02 | 0.02 | 92 | 1014.4 |
| 20260906160150 | 78 | 285 | 0.0 | 1.0 | 0.00 | 0.02 | 0.02 | 92 | 1014.3 |
| 20260906155648 | 78 | 291 | 0.0 | 1.0 | 0.00 | 0.02 | 0.02 | 92 | 1014.4 |
| 20260906155143 | 78 | 282 | 0.0 | 0.0 | 0.00 | 0.02 | 0.02 | 93 | 1014.1 |
| 20260906154639 | 78 | 292 | 0.0 | 0.0 | 0.00 | 0.02 | 0.02 | 94 | 1014.0 |
| 20260906154138 | 78 | 339 | 1.0 | 1.0 | 0.00 | 0.02 | 0.02 | 94 | 1014.1 |
| 20260906153637 | 78 | 283 | 0.0 | 0.0 | 0.00 | 0.02 | 0.02 | 94 | 1013.9 |
| 20260906153133 | 78 | 288 | 0.0 | 0.0 | 0.00 | 0.02 | 0.02 | 94 | 1014.1 |
| 20260906152633 | 78 | 285 | 0.0 | 0.0 | 0.00 | 0.02 | 0.02 | 94 | 1014.1 |
| 20260906152127 | 77 | 287 | 1.0 | 2.0 | 0.00 | 0.02 | 0.02 | 95 | 1014.1 |
| 20260906151621 | 77 | 289 | 0.0 | 1.0 | 0.00 | 0.02 | 0.02 | 95 | 1014.2 |
| 20260906151118 | 77 | 288 | 0.0 | 0.0 | 0.00 | 0.02 | 0.02 | 96 | 1014.4 |
| 20260906150613 | 77 | 279 | 0.0 | 0.0 | 0.00 | 0.02 | 0.02 | 96 | 1014.1 |
| 20260906150108 | 77 | 281 | 0.0 | 0.0 | 0.00 | 0.02 | 0.02 | 97 | 1014.3 |
| 20260906145607 | 77 | 45 | 1.0 | 2.0 | 0.00 | 0.02 | 0.02 | 97 | 1014.4 |
| 20260906145101 | 77 | 282 | 0.0 | 0.0 | 0.00 | 0.02 | 0.02 | 97 | 1014.5 |
| 20260906144556 | 77 | 288 | 0.0 | 0.0 | 0.05 | 0.02 | 0.02 | 97 | 1014.4 |
| 20260906144051 | 77 | 282 | 0.0 | 0.0 | 0.12 | 0.02 | 0.02 | 97 | 1014.4 |
| 20260906143546 | 77 | 289 | 0.0 | 0.0 | 0.07 | 0.01 | 0.01 | 96 | 1014.5 |
| 20260906143043 | 77 | 284 | 0.0 | 1.0 | 0.00 | 0.00 | 0.00 | 95 | 1014.3 |
| 20260906142542 | 77 | 307 | 0.0 | 1.0 | 0.00 | 0.00 | 0.00 | 95 | 1014.2 |
| 20260906142038 | 77 | 280 | 0.0 | 1.0 | 0.00 | 0.00 | 0.00 | 96 | 1013.8 |
| 20260906141537 | 77 | 288 | 0.0 | 0.0 | 0.00 | 0.00 | 0.00 | 96 | 1014.2 |
| 20260906141032 | 77 | 282 | 0.0 | 0.0 | 0.00 | 0.00 | 0.00 | 96 | 1014.1 |
| 20260906140531 | 76 | 280 | 0.0 | 0.0 | 0.00 | 0.00 | 0.00 | 96 | 1014.2 |
| 20260906140031 | 76 | 282 | 0.0 | 0.0 | 0.00 | 0.00 | 0.00 | 97 | 1013.9 |
| 20260906135528 | 76 | 315 | 0.0 | 1.0 | 0.00 | 0.00 | 0.00 | 97 | 1013.8 |
| 20260906135024 | 76 | 282 | 1.0 | 1.0 | 0.00 | 0.00 | 0.00 | 97 | 1013.8 |
| 20260906134519 | 76 | 307 | 1.0 | 1.0 | 0.00 | 0.00 | 0.00 | 97 | 1013.8 |
| 20260906134014 | 76 | 283 | 0.0 | 0.0 | 0.00 | 0.00 | 0.00 | 98 | 1014.0 |
| 20260906133510 | 76 | 287 | 0.0 | 0.0 | 0.00 | 0.00 | 0.00 | 98 | 1013.7 |
| 20260906133005 | 75 | 283 | 0.0 | 0.0 | 0.00 | 0.00 | 0.00 | 98 | 1013.6 |
| 20260906132500 | 75 | 281 | 0.0 | 0.0 | 0.00 | 0.00 | 0.00 | 98 | 1013.7 |
| 20260906131955 | 75 | 280 | 0.0 | 1.0 | 0.00 | 0.00 | 0.00 | 98 | 1013.6 |
| 20260906131451 | 75 | 291 | 1.0 | 1.0 | 0.00 | 0.00 | 0.00 | 98 | 1013.8 |
| 20260906130946 | 75 | 281 | 0.0 | 1.0 | 0.00 | 0.00 | 0.00 | 98 | 1013.6 |
| 20260906130445 | 75 | 281 | 1.0 | 1.0 | 0.00 | 0.00 | 0.00 | 99 | 1013.6 |
| 20260906125940 | 75 | 282 | 0.0 | 0.0 | 0.00 | 0.00 | 0.00 | 99 | 1013.6 |
| 20260906125437 | 75 | 287 | 0.0 | 1.0 | 0.00 | 0.00 | 0.00 | 99 | 1013.6 |
| 20260906124937 | 75 | 284 | 0.0 | 1.0 | 0.00 | 0.00 | 0.00 | 99 | 1013.6 |
| 20260906124433 | 75 | 291 | 0.0 | 0.0 | 0.00 | 0.00 | 0.00 | 99 | 1013.4 |
| 20260906123933 | 75 | 280 | 0.0 | 1.0 | 0.00 | 0.00 | 0.00 | 99 | 1013.6 |
| 20260906123433 | 75 | 290 | 1.0 | 1.0 | 0.00 | 0.00 | 0.00 | 99 | 1013.4 |
| 20260906122933 | 75 | 273 | 0.0 | 1.0 | 0.00 | 0.00 | 0.00 | 99 | 1013.4 |
| 20260906122428 | 75 | 284 | 0.0 | 0.0 | 0.00 | 0.00 | 0.00 | 99 | 1013.5 |
| 20260906121925 | 75 | 277 | 1.0 | 1.0 | 0.00 | 0.00 | 0.00 | 99 | 1013.5 |
| 20260906121420 | 75 | 284 | 1.0 | 1.0 | 0.00 | 0.00 | 0.00 | 99 | 1013.3 |
| 20260906120917 | 75 | 281 | 0.0 | 1.0 | 0.00 | 0.00 | 0.00 | 99 | 1013.3 |
| 20260906120412 | 75 | 310 | 0.0 | 1.0 | 0.00 | 0.00 | 0.00 | 99 | 1013.5 |
| 20260906115908 | 75 | 286 | 0.0 | 1.0 | 0.00 | 0.00 | 0.00 | 99 | 1013.3 |
| 20260906115403 | 75 | 279 | 0.0 | 0.0 | 0.00 | 0.00 | 0.00 | 99 | 1013.3 |
| 20260906114902 | 75 | 277 | 0.0 | 0.0 | 0.00 | 0.00 | 0.00 | 99 | 1013.2 |
| 20260906114358 | 75 | 273 | 0.0 | 1.0 | 0.00 | 0.00 | 0.00 | 99 | 1013.2 |
| 20260906113853 | 75 | 279 | 0.0 | 1.0 | 0.00 | 0.00 | 0.00 | 99 | 1013.2 |
| 20260906113352 | 74 | 277 | 0.0 | 1.0 | 0.00 | 0.00 | 0.00 | 99 | 1013.0 |
| 20260906112848 | 75 | 284 | 0.0 | 1.0 | 0.00 | 0.00 | 0.00 | 99 | 1013.1 |
| 20260906112344 | 75 | 280 | 0.0 | 0.0 | 0.00 | 0.00 | 0.00 | 99 | 1013.1 |
| 20260906111843 | 75 | 279 | 0.0 | 0.0 | 0.00 | 0.00 | 0.00 | 99 | 1012.9 |
| 20260906111343 | 75 | 291 | 0.0 | 0.0 | 0.00 | 0.00 | 0.00 | 99 | 1012.9 |
| 20260906110838 | 75 | 279 | 0.0 | 0.0 | 0.00 | 0.00 | 0.00 | 99 | 1012.7 |
| 20260906110334 | 75 | 283 | 0.0 | 0.0 | 0.00 | 0.00 | 0.00 | 99 | 1012.6 |
| 20260906105833 | 75 | 282 | 0.0 | 1.0 | 0.00 | 0.00 | 0.00 | 99 | 1012.7 |
| 20260906105329 | 75 | 284 | 0.0 | 0.0 | 0.00 | 0.00 | 0.00 | 99 | 1012.8 |
| 20260906104825 | 75 | 285 | 0.0 | 1.0 | 0.00 | 0.00 | 0.00 | 99 | 1012.7 |
| 20260906104323 | 75 | 283 | 0.0 | 0.0 | 0.00 | 0.00 | 0.00 | 99 | 1012.5 |
| 20260906103822 | 75 | 279 | 0.0 | 0.0 | 0.00 | 0.00 | 0.00 | 99 | 1012.7 |
| 20260906103320 | 75 | 276 | 0.0 | 1.0 | 0.00 | 0.00 | 0.00 | 99 | 1012.6 |
| 20260906102817 | 75 | 280 | 0.0 | 0.0 | 0.00 | 0.00 | 0.00 | 99 | 1012.6 |
| 20260906102315 | 75 | 279 | 0.0 | 0.0 | 0.00 | 0.00 | 0.00 | 99 | 1012.7 |
| 20260906101811 | 75 | 289 | 0.0 | 0.0 | 0.00 | 0.00 | 0.00 | 99 | 1012.7 |
| 20260906101306 | 75 | 281 | 0.0 | 0.0 | 0.00 | 0.00 | 0.00 | 99 | 1012.6 |
| 20260906100802 | 75 | 276 | 0.0 | 0.0 | 0.00 | 0.00 | 0.00 | 98 | 1012.7 |
| 20260906100300 | 75 | 280 | 0.0 | 0.0 | 0.00 | 0.00 | 0.00 | 98 | 1012.8 |
| 20260906095756 | 75 | 279 | 0.0 | 0.0 | 0.00 | 0.00 | 0.00 | 98 | 1012.6 |
| 20260906095251 | 75 | 283 | 0.0 | 0.0 | 0.00 | 0.00 | 0.00 | 98 | 1012.7 |
| 20260906094750 | 75 | 275 | 0.0 | 0.0 | 0.00 | 0.00 | 0.00 | 98 | 1012.6 |
| 20260906094245 | 75 | 273 | 0.0 | 0.0 | 0.00 | 0.00 | 0.00 | 98 | 1012.8 |
| 20260906093742 | 75 | 280 | 0.0 | 0.0 | 0.00 | 0.00 | 0.00 | 98 | 1012.8 |
| 20260906093237 | 75 | 279 | 1.0 | 1.0 | 0.00 | 0.00 | 0.00 | 98 | 1012.9 |
| 20260906092732 | 75 | 281 | 0.0 | 1.0 | 0.00 | 0.00 | 0.00 | 98 | 1013.0 |
| 20260906092232 | 75 | 280 | 0.0 | 0.0 | 0.00 | 0.00 | 0.00 | 97 | 1013.0 |
| 20260906091728 | 75 | 282 | 0.0 | 0.0 | 0.00 | 0.00 | 0.00 | 97 | 1013.0 |
| 20260906091224 | 75 | 279 | 0.0 | 0.0 | 0.00 | 0.00 | 0.00 | 97 | 1013.1 |
| 20260906090720 | 75 | 286 | 0.0 | 0.0 | 0.00 | 0.00 | 0.00 | 97 | 1013.2 |
| 20260906090219 | 75 | 283 | 0.0 | 1.0 | 0.00 | 0.00 | 0.00 | 97 | 1013.1 |
| 20260906085719 | 75 | 283 | 0.0 | 1.0 | 0.00 | 0.00 | 0.00 | 97 | 1013.1 |
| 20260906085218 | 75 | 282 | 0.0 | 0.0 | 0.00 | 0.00 | 0.00 | 97 | 1013.2 |
| 20260906084713 | 75 | 281 | 0.0 | 0.0 | 0.00 | 0.00 | 0.00 | 97 | 1013.3 |
| 20260906084212 | 75 | 281 | 0.0 | 0.0 | 0.00 | 0.00 | 0.00 | 97 | 1013.2 |
| 20260906083708 | 75 | 287 | 0.0 | 0.0 | 0.00 | 0.00 | 0.00 | 97 | 1013.3 |
| 20260906083203 | 75 | 280 | 0.0 | 0.0 | 0.00 | 0.00 | 0.00 | 97 | 1013.2 |
| 20260906082658 | 75 | 280 | 0.0 | 0.0 | 0.00 | 0.00 | 0.00 | 97 | 1013.0 |
| 20260906082153 | 75 | 281 | 0.0 | 0.0 | 0.00 | 0.00 | 0.00 | 97 | 1013.1 |
| 20260906081649 | 75 | 283 | 0.0 | 0.0 | 0.00 | 0.00 | 0.00 | 97 | 1013.0 |
| 20260906081144 | 75 | 276 | 0.0 | 0.0 | 0.00 | 0.00 | 0.00 | 97 | 1012.9 |
| 20260906080641 | 75 | 279 | 0.0 | 0.0 | 0.00 | 0.00 | 0.00 | 97 | 1012.8 |
| 20260906080137 | 75 | 279 | 0.0 | 0.0 | 0.00 | 0.00 | 0.00 | 97 | 1012.7 |
| 20260906075636 | 75 | 282 | 0.0 | 0.0 | 0.00 | 0.00 | 0.00 | 97 | 1012.5 |
| 20260906075131 | 75 | 280 | 0.0 | 0.0 | 0.00 | 0.00 | 0.00 | 97 | 1012.8 |
| 20260906074626 | 75 | 280 | 0.0 | 0.0 | 0.00 | 0.00 | 0.00 | 97 | 1012.7 |
| 20260906074125 | 75 | 280 | 0.0 | 0.0 | 0.00 | 0.00 | 0.00 | 97 | 1012.7 |
| 20260906073620 | 75 | 281 | 0.0 | 0.0 | 0.00 | 0.00 | 0.00 | 97 | 1012.6 |
| 20260906073115 | 75 | 283 | 0.0 | 0.0 | 0.00 | 0.00 | 0.00 | 97 | 1012.7 |
| 20260906072610 | 75 | 282 | 0.0 | 0.0 | 0.00 | 0.00 | 0.00 | 96 | 1012.8 |
| 20260906072106 | 75 | 282 | 0.0 | 0.0 | 0.00 | 0.00 | 0.00 | 96 | 1012.8 |
| 20260906071602 | 75 | 282 | 0.0 | 0.0 | 0.00 | 0.00 | 0.00 | 96 | 1012.8 |
| 20260906071057 | 75 | 282 | 0.0 | 0.0 | 0.00 | 0.00 | 0.00 | 96 | 1012.9 |
| 20260906070554 | 75 | 282 | 0.0 | 0.0 | 0.00 | 0.00 | 0.00 | 96 | 1013.0 |
| 20260906070049 | 75 | 293 | 0.0 | 0.0 | 0.00 | 0.00 | 0.00 | 95 | 1013.0 |
| 20260906065548 | 75 | 278 | 0.0 | 0.0 | 0.00 | 0.00 | 0.00 | 95 | 1013.1 |
| 20260906065044 | 75 | 281 | 0.0 | 0.0 | 0.00 | 0.00 | 0.00 | 95 | 1013.1 |
| 20260906064540 | 75 | 281 | 0.0 | 0.0 | 0.00 | 0.00 | 0.00 | 95 | 1013.2 |
| 20260906064034 | 75 | 282 | 0.0 | 1.0 | 0.00 | 0.00 | 0.00 | 95 | 1013.2 |
| 20260906063530 | 75 | 285 | 0.0 | 0.0 | 0.00 | 0.00 | 0.00 | 95 | 1013.1 |
| 20260906063026 | 75 | 279 | 0.0 | 0.0 | 0.00 | 0.00 | 0.00 | 95 | 1013.1 |
| 20260906062521 | 75 | 278 | 0.0 | 1.0 | 0.00 | 0.00 | 0.00 | 94 | 1013.2 |
| 20260906062015 | 75 | 281 | 0.0 | 1.0 | 0.00 | 0.00 | 0.00 | 94 | 1013.2 |
| 20260906061511 | 75 | 280 | 0.0 | 0.0 | 0.00 | 0.00 | 0.00 | 94 | 1013.1 |
| 20260906061010 | 75 | 281 | 0.0 | 0.0 | 0.00 | 0.00 | 0.00 | 94 | 1013.0 |
| 20260906060508 | 75 | 285 | 0.0 | 1.0 | 0.00 | 0.00 | 0.00 | 94 | 1013.1 |
| 20260906060004 | 75 | 283 | 0.0 | 0.0 | 0.00 | 0.00 | 0.00 | 94 | 1013.1 |
| 20260906055459 | 75 | 284 | 0.0 | 0.0 | 0.00 | 0.00 | 0.00 | 94 | 1013.2 |
| 20260906054955 | 75 | 284 | 0.0 | 0.0 | 0.00 | 0.00 | 0.00 | 93 | 1013.2 |
| 20260906054454 | 75 | 283 | 0.0 | 0.0 | 0.00 | 0.00 | 0.00 | 93 | 1013.1 |
| 20260906053950 | 75 | 280 | 0.0 | 0.0 | 0.00 | 0.00 | 0.00 | 93 | 1013.4 |
| 20260906053446 | 75 | 285 | 0.0 | 0.0 | 0.00 | 0.00 | 0.00 | 93 | 1013.2 |
| 20260906052942 | 75 | 279 | 0.0 | 0.0 | 0.00 | 0.00 | 0.00 | 92 | 1013.0 |
| 20260906052438 | 75 | 283 | 0.0 | 0.0 | 0.00 | 0.00 | 0.00 | 92 | 1013.2 |
| 20260906051934 | 75 | 280 | 0.0 | 0.0 | 0.00 | 0.00 | 0.00 | 92 | 1013.2 |
| 20260906051430 | 75 | 282 | 0.0 | 0.0 | 0.00 | 0.00 | 0.00 | 92 | 1013.1 |
| 20260906050925 | 75 | 283 | 0.0 | 0.0 | 0.00 | 0.00 | 0.00 | 91 | 1013.3 |
| 20260906050425 | 75 | 280 | 0.0 | 0.0 | 0.00 | 0.00 | 0.00 | 91 | 1013.2 |
| 20260906045924 | 75 | 284 | 0.0 | 0.0 | 0.00 | 0.30 | 0.30 | 91 | 1013.1 |
| 20260906045423 | 75 | 282 | 0.0 | 0.0 | 0.00 | 0.30 | 0.30 | 91 | 1013.2 |
| 20260906044919 | 75 | 280 | 0.0 | 1.0 | 0.00 | 0.30 | 0.30 | 91 | 1013.2 |
| 20260906044420 | 75 | 283 | 0.0 | 0.0 | 0.00 | 0.30 | 0.30 | 90 | 1013.2 |
| 20260906043915 | 75 | 280 | 0.0 | 0.0 | 0.00 | 0.30 | 0.30 | 90 | 1013.3 |
| 20260906043411 | 75 | 280 | 0.0 | 0.0 | 0.00 | 0.30 | 0.30 | 90 | 1013.4 |
| 20260906042906 | 75 | 281 | 0.0 | 0.0 | 0.00 | 0.30 | 0.30 | 90 | 1013.6 |
| 20260906042405 | 75 | 282 | 0.0 | 1.0 | 0.00 | 0.30 | 0.30 | 90 | 1013.5 |
| 20260906041901 | 75 | 288 | 0.0 | 0.0 | 0.00 | 0.30 | 0.30 | 90 | 1013.5 |
| 20260906041357 | 75 | 276 | 0.0 | 1.0 | 0.00 | 0.30 | 0.30 | 89 | 1013.6 |
| 20260906040856 | 75 | 285 | 0.0 | 1.0 | 0.00 | 0.30 | 0.30 | 89 | 1013.6 |
| 20260906040352 | 75 | 277 | 0.0 | 1.0 | 0.00 | 0.30 | 0.30 | 89 | 1013.6 |
| 20260906035847 | 75 | 277 | 0.0 | 0.0 | 0.00 | 0.30 | 0.30 | 89 | 1013.8 |
| 20260906035342 | 75 | 278 | 0.0 | 1.0 | 0.00 | 0.30 | 0.30 | 88 | 1013.5 |
| 20260906034838 | 75 | 282 | 1.0 | 1.0 | 0.00 | 0.30 | 0.30 | 88 | 1013.6 |
| 20260906034333 | 76 | 298 | 0.0 | 0.0 | 0.00 | 0.30 | 0.30 | 88 | 1013.5 |
| 20260906033829 | 76 | 284 | 0.0 | 0.0 | 0.00 | 0.30 | 0.30 | 88 | 1013.5 |
| 20260906033327 | 76 | 279 | 0.0 | 0.0 | 0.00 | 0.30 | 0.30 | 87 | 1013.3 |
| 20260906032824 | 76 | 279 | 0.0 | 0.0 | 0.00 | 0.30 | 0.30 | 87 | 1013.4 |
| 20260906032320 | 76 | 282 | 0.0 | 0.0 | 0.00 | 0.30 | 0.30 | 87 | 1013.2 |
| 20260906031815 | 76 | 280 | 0.0 | 0.0 | 0.00 | 0.30 | 0.30 | 86 | 1013.2 |
| 20260906031310 | 76 | 281 | 0.0 | 1.0 | 0.00 | 0.30 | 0.30 | 86 | 1013.1 |
| 20260906030810 | 76 | 274 | 2.0 | 3.0 | 0.00 | 0.30 | 0.30 | 85 | 1013.0 |
| 20260906030305 | 76 | 280 | 0.0 | 0.0 | 0.00 | 0.30 | 0.30 | 85 | 1013.1 |
| 20260906025805 | 77 | 278 | 0.0 | 0.0 | 0.00 | 0.30 | 0.30 | 84 | 1013.4 |
| 20260906025259 | 77 | 273 | 0.0 | 0.0 | 0.00 | 0.30 | 0.30 | 84 | 1013.4 |
| 20260906024758 | 77 | 282 | 0.0 | 0.0 | 0.00 | 0.30 | 0.30 | 84 | 1013.3 |
| 20260906024257 | 77 | 277 | 0.0 | 0.0 | 0.00 | 0.30 | 0.30 | 83 | 1013.3 |
| 20260906023753 | 77 | 281 | 0.0 | 0.0 | 0.00 | 0.30 | 0.30 | 83 | 1013.1 |
| 20260906023248 | 77 | 282 | 0.0 | 1.0 | 0.00 | 0.30 | 0.30 | 82 | 1013.2 |
| 20260906022744 | 78 | 277 | 0.0 | 0.0 | 0.00 | 0.30 | 0.30 | 81 | 1013.0 |
| 20260906022239 | 78 | 280 | 0.0 | 1.0 | 0.00 | 0.30 | 0.30 | 81 | 1012.8 |
| 20260906021735 | 78 | 281 | 0.0 | 0.0 | 0.00 | 0.30 | 0.30 | 81 | 1013.1 |
| 20260906021234 | 78 | 279 | 0.0 | 0.0 | 0.00 | 0.30 | 0.30 | 80 | 1013.1 |
| 20260906020729 | 78 | 273 | 0.0 | 0.0 | 0.00 | 0.30 | 0.30 | 80 | 1012.9 |
| 20260906020223 | 78 | 277 | 0.0 | 0.0 | 0.00 | 0.30 | 0.30 | 79 | 1012.9 |
| 20260906015723 | 78 | 280 | 0.0 | 0.0 | 0.00 | 0.30 | 0.30 | 79 | 1012.9 |
| 20260906015221 | 79 | 278 | 0.0 | 0.0 | 0.00 | 0.30 | 0.30 | 78 | 1012.9 |
| 20260906014716 | 79 | 279 | 0.0 | 1.0 | 0.00 | 0.30 | 0.30 | 77 | 1012.9 |
| 20260906014212 | 79 | 278 | 0.0 | 0.0 | 0.00 | 0.30 | 0.30 | 77 | 1012.6 |
| 20260906013708 | 79 | 282 | 0.0 | 0.0 | 0.00 | 0.30 | 0.30 | 77 | 1012.5 |
| 20260906013208 | 79 | 281 | 1.0 | 1.0 | 0.00 | 0.30 | 0.30 | 76 | 1012.8 |
| 20260906012704 | 80 | 273 | 0.0 | 0.0 | 0.00 | 0.30 | 0.30 | 76 | 1012.5 |
| 20260906012204 | 80 | 281 | 0.0 | 0.0 | 0.00 | 0.30 | 0.30 | 75 | 1012.6 |
| 20260906011700 | 80 | 282 | 0.0 | 0.0 | 0.00 | 0.30 | 0.30 | 75 | 1012.3 |
| 20260906011159 | 80 | 273 | 0.0 | 0.0 | 0.00 | 0.30 | 0.30 | 75 | 1012.3 |
| 20260906010655 | 80 | 280 | 0.0 | 0.0 | 0.00 | 0.30 | 0.30 | 74 | 1012.5 |
| 20260906010152 | 80 | 280 | 0.0 | 0.0 | 0.00 | 0.30 | 0.30 | 73 | 1012.3 |
| 20260906005651 | 81 | 276 | 1.0 | 1.0 | 0.00 | 0.30 | 0.30 | 73 | 1012.5 |
| 20260906005150 | 81 | 279 | 0.0 | 0.0 | 0.00 | 0.30 | 0.30 | 71 | 1012.3 |
| 20260906004649 | 81 | 289 | 0.0 | 0.0 | 0.00 | 0.30 | 0.30 | 71 | 1012.5 |
| 20260906004144 | 82 | 277 | 0.0 | 0.0 | 0.00 | 0.30 | 0.30 | 70 | 1012.1 |
| 20260906003640 | 82 | 275 | 0.0 | 0.0 | 0.00 | 0.30 | 0.30 | 69 | 1012.2 |
| 20260906003135 | 82 | 280 | 0.0 | 0.0 | 0.00 | 0.30 | 0.30 | 69 | 1011.9 |
| 20260906002630 | 83 | 281 | 0.0 | 1.0 | 0.00 | 0.30 | 0.30 | 68 | 1011.9 |
| 20260906002125 | 83 | 277 | 0.0 | 1.0 | 0.00 | 0.30 | 0.30 | 67 | 1011.9 |
| 20260906001620 | 84 | 279 | 1.0 | 1.0 | 0.00 | 0.30 | 0.30 | 67 | 1011.9 |
| 20260906001120 | 85 | 306 | 1.0 | 2.0 | 0.00 | 0.30 | 0.30 | 66 | 1011.9 |
| 20260906000616 | 85 | 269 | 0.0 | 0.0 | 0.00 | 0.30 | 0.30 | 64 | 1011.8 |
| 20260906000111 | 85 | 286 | 1.0 | 1.0 | 0.00 | 0.30 | 0.30 | 63 | 1012.0 |
| 20260905235610 | 86 | 280 | 0.0 | 0.0 | 0.00 | 0.30 | 0.30 | 62 | 1011.7 |
| 20260905235105 | 86 | 278 | 1.0 | 1.0 | 0.00 | 0.30 | 0.30 | 61 | 1011.8 |
| 20260905234601 | 86 | 277 | 0.0 | 0.0 | 0.00 | 0.30 | 0.30 | 60 | 1012.0 |
| 20260905234056 | 87 | 288 | 0.0 | 0.0 | 0.00 | 0.30 | 0.30 | 59 | 1012.1 |
| 20260905233555 | 87 | 279 | 0.0 | 2.0 | 0.00 | 0.30 | 0.30 | 57 | 1012.1 |
| 20260905233050 | 88 | 281 | 1.0 | 2.0 | 0.00 | 0.30 | 0.30 | 56 | 1011.9 |
| 20260905232546 | 89 | 245 | 1.0 | 2.0 | 0.00 | 0.30 | 0.30 | 54 | 1011.8 |
| 20260905232041 | 90 | 249 | 2.0 | 2.0 | 0.00 | 0.30 | 0.30 | 55 | 1012.0 |
| 20260905231536 | 90 | 269 | 1.0 | 1.0 | 0.00 | 0.30 | 0.30 | 53 | 1011.9 |
| 20260905231032 | 90 | 276 | 1.0 | 1.0 | 0.00 | 0.30 | 0.30 | 53 | 1011.9 |
| 20260905230532 | 90 | 292 | 1.0 | 2.0 | 0.00 | 0.30 | 0.30 | 52 | 1011.7 |
| 20260905230031 | 90 | 283 | 0.0 | 1.0 | 0.00 | 0.30 | 0.30 | 51 | 1011.9 |
| 20260905225525 | 91 | 287 | 1.0 | 1.0 | 0.00 | 0.30 | 0.30 | 51 | 1011.9 |
| 20260905225021 | 91 | 278 | 0.0 | 0.0 | 0.00 | 0.30 | 0.30 | 49 | 1011.7 |
| 20260905224521 | 91 | 292 | 1.0 | 1.0 | 0.00 | 0.30 | 0.30 | 50 | 1011.7 |
| 20260905224020 | 91 | 262 | 1.0 | 1.0 | 0.00 | 0.30 | 0.30 | 49 | 1011.7 |
| 20260905223518 | 92 | 279 | 0.0 | 0.0 | 0.00 | 0.30 | 0.30 | 49 | 1011.7 |
| 20260905223014 | 92 | 282 | 0.0 | 0.0 | 0.00 | 0.30 | 0.30 | 48 | 1011.8 |
| 20260905222513 | 92 | 286 | 0.0 | 1.0 | 0.00 | 0.30 | 0.30 | 47 | 1011.8 |
| 20260905222009 | 91 | 283 | 0.0 | 1.0 | 0.00 | 0.30 | 0.30 | 47 | 1011.7 |
| 20260905221505 | 91 | 285 | 1.0 | 1.0 | 0.00 | 0.30 | 0.30 | 47 | 1011.5 |
| 20260905221001 | 91 | 278 | 0.0 | 1.0 | 0.00 | 0.30 | 0.30 | 49 | 1011.4 |
| 20260905220457 | 91 | 286 | 1.0 | 1.0 | 0.00 | 0.30 | 0.30 | 49 | 1011.5 |
| 20260905215956 | 89 | 291 | 0.0 | 1.0 | 0.00 | 0.30 | 0.30 | 51 | 1011.5 |
| 20260905215452 | 90 | 277 | 0.0 | 1.0 | 0.00 | 0.30 | 0.30 | 49 | 1011.5 |
| 20260905214948 | 92 | 279 | 0.0 | 1.0 | 0.00 | 0.30 | 0.30 | 47 | 1011.4 |
| 20260905214444 | 92 | 270 | 0.0 | 1.0 | 0.00 | 0.30 | 0.30 | 49 | 1011.3 |
| 20260905213943 | 92 | 283 | 0.0 | 0.0 | 0.00 | 0.30 | 0.30 | 47 | 1011.4 |
| 20260905213440 | 92 | 281 | 0.0 | 0.0 | 0.00 | 0.30 | 0.30 | 48 | 1011.5 |
| 20260905212935 | 93 | 290 | 0.0 | 1.0 | 0.00 | 0.30 | 0.30 | 48 | 1011.5 |
| 20260905212430 | 92 | 279 | 0.0 | 0.0 | 0.00 | 0.30 | 0.30 | 50 | 1011.5 |
| 20260905211928 | 91 | 284 | 0.0 | 0.0 | 0.00 | 0.30 | 0.30 | 50 | 1011.6 |
| 20260905211424 | 91 | 281 | 1.0 | 1.0 | 0.00 | 0.30 | 0.30 | 51 | 1011.4 |
| 20260905210920 | 92 | 296 | 1.0 | 1.0 | 0.00 | 0.30 | 0.30 | 50 | 1011.6 |
| 20260905210420 | 91 | 295 | 0.0 | 1.0 | 0.00 | 0.30 | 0.30 | 51 | 1011.4 |
| 20260905205920 | 91 | 291 | 0.0 | 1.0 | 0.00 | 0.30 | 0.30 | 50 | 1011.6 |
| 20260905205415 | 91 | 293 | 0.0 | 0.0 | 0.00 | 0.30 | 0.30 | 52 | 1011.4 |
| 20260905204913 | 91 | 292 | 0.0 | 1.0 | 0.00 | 0.30 | 0.30 | 51 | 1011.6 |
| 20260905204410 | 91 | 282 | 0.0 | 1.0 | 0.00 | 0.30 | 0.30 | 50 | 1011.3 |
| 20260905203909 | 91 | 281 | 1.0 | 1.0 | 0.00 | 0.30 | 0.30 | 51 | 1011.5 |
| 20260905203404 | 91 | 285 | 0.0 | 1.0 | 0.00 | 0.30 | 0.30 | 52 | 1011.2 |
| 20260905202900 | 91 | 285 | 0.0 | 0.0 | 0.00 | 0.30 | 0.30 | 51 | 1011.3 |
| 20260905202355 | 91 | 287 | 0.0 | 1.0 | 0.00 | 0.30 | 0.30 | 52 | 1011.3 |
| 20260905201850 | 91 | 284 | 0.0 | 0.0 | 0.00 | 0.30 | 0.30 | 52 | 1011.2 |
| 20260905201346 | 90 | 293 | 0.0 | 1.0 | 0.00 | 0.30 | 0.30 | 54 | 1011.2 |
| 20260905200845 | 89 | 303 | 0.0 | 0.0 | 0.00 | 0.30 | 0.30 | 54 | 1011.3 |
| 20260905200342 | 89 | 287 | 0.0 | 0.0 | 0.00 | 0.30 | 0.30 | 54 | 1011.2 |
| 20260905195840 | 90 | 285 | 0.0 | 0.0 | 0.00 | 0.30 | 0.30 | 55 | 1011.3 |
| 20260905195335 | 89 | 284 | 0.0 | 0.0 | 0.00 | 0.30 | 0.30 | 56 | 1011.4 |
| 20260905194831 | 88 | 286 | 0.0 | 1.0 | 0.00 | 0.30 | 0.30 | 55 | 1011.4 |
| 20260905194330 | 90 | 262 | 0.0 | 0.0 | 0.00 | 0.30 | 0.30 | 57 | 1011.6 |
| 20260905193829 | 90 | 300 | 0.0 | 0.0 | 0.00 | 0.30 | 0.30 | 52 | 1011.6 |
| 20260905193324 | 89 | 287 | 0.0 | 1.0 | 0.00 | 0.30 | 0.30 | 59 | 1011.4 |
| 20260905192820 | 88 | 283 | 0.0 | 0.0 | 0.00 | 0.30 | 0.30 | 58 | 1011.5 |